Volver al catálogo

FREGAT DEB

LostUNKNOWN
NORAD 46012·DEBRIS·🇷🇺 Russia

Lanzado Jul 18, 2011 desde Baikonur Cosmodrome

Loading…

Próximos Pases (próximas 24 horas)

TLE

ObsoletoSource: Space-Track

Época: Aug 24, 2020, 03:00 UTC

1 46012U 11037HP  20237.12524856 -.00038233  00000-0 -44255-1 0  9994
2 46012  51.3841 146.2903 1200797 241.4485 106.0401 12.06927699  3125

Sigue FREGAT DEB en tiempo real con AllMySat

Download on the App Store